Regional Weather Roundup
Issued by NWS

Home | Current Version | Previous Version | Graphics & Text | Print | Product List | Glossary On
Versions: 1 2 3 4 5 6 7 8 9 10 11 12 13 14 15 16 17 18 19 20 21 22 23 24 25 26 27 28 29 30 31 32 33 34 35 36 37 38 39 40 41 42 43 44 45 46 47 48 49 50
000
ASUS45 KPSR 281710
RWRAZ

ARIZONA HOURLY REGIONAL WEATHER ROUNDUP
NATIONAL WEATHER SERVICE PHOENIX AZ
1000 AM MST THU APR 28 2016

NOTE: FAIR INDICATES FEW OR NO CLOUDS BELOW 12,000 FEET WITH NO
SIGNIFICANT WEATHER AND/OR OBSTRUCTIONS TO VISIBILITY.

AZZ001>003-036-281800-
NORTHWEST ARIZONA

CITY           SKY/WX    TMP DP  RH WIND       PRES   REMARKS
BULLHEAD CITY  FAIR      59  46  63 N5        29.72S
KINGMAN        CLOUDY    48  42  80 VRB3      29.73R
$$

AZZ004>008-015-016-018-281800-
NORTH CENTRAL ARIZONA

CITY           SKY/WX    TMP DP  RH WIND       PRES   REMARKS
GRAND CANYON   CLOUDY    42  30  62 W14G29    29.72R
WILLIAMS       FAIR      41  30  65 S23       29.79R
PRESCOTT       LGT RAIN  47  33  58 S6G17     29.72R
FLAGSTAFF      FAIR      43  25  49 SW18      29.73S
PAYSON         CLOUDY    48  25  40 S14G30    29.79R
PAGE           PTSUNNY   49  40  71 NW5       29.70R
$$

AZZ009>014-017-281800-
NORTHEAST ARIZONA

CITY           SKY/WX    TMP DP  RH WIND       PRES   REMARKS
WINSLOW        FAIR      58  31  35 SW26G33   29.72S
SAINT JOHNS    FAIR      62  11  13 SW24G33   29.73S
WINDOW ROCK    PTSUNNY   55  23  28 S21G30    29.78F
SHOW LOW       FAIR      54  14  20 SW31G43   29.76S
$$

AZZ023-281800-
GREATER PHOENIX AREA

CITY           SKY/WX    TMP DP  RH WIND       PRES   REMARKS
PHOENIX        PTSUNNY   70  28  21 W9        29.71R
BUCKEYE        FAIR      68  32  26 SW13G18   29.73S
GLENDALE       MOSUNNY   68  34  28 S14G22    29.73R
LUKE AFB       FAIR      67  35  30 S9G23     29.70R
DEER VALLEY    FAIR      66  30  26 SW17      29.71R
SCOTTSDALE     FAIR      68  25  19 SW10      29.72S
MESA-FALCON    PTSUNNY  N/A N/A N/A SE17      29.70R
MESA-GATEWAY   PTSUNNY   66  25  20 SW14      29.74R
CHANDLER       PTSUNNY   68  27  21 S17       29.73R
$$

AZZ027-028-281800-
SOUTHWEST MARICOPA COUNTY AND PINAL COUNTY

CITY           SKY/WX    TMP DP  RH WIND       PRES   REMARKS
CASA GRANDE    FAIR      66  30  26 W9        29.75R
GILA BEND      SUNNY     68  32  27 W10       29.74R
$$

AZZ503-504-507>509-281800-
SOUTHEAST ARIZONA

CITY           SKY/WX    TMP DP  RH WIND       PRES   REMARKS
TUCSON         FAIR      73  21  14 S18       29.76S
DAVIS-MONTHAN  FAIR      72  23  16 S16G24    29.74S
RYAN FIELD     SUNNY     73  27  17 S22G28    29.74F
NOGALES        FAIR      67  28  23 S22G29    29.82S
SIERRA VISTA   FAIR      66  19  16 S14       29.84S
DOUGLAS        FAIR      70  23  17 SW22G28   29.83F
SAFFORD        FAIR      73  17  12 S16       29.73S
$$

AZZ020-021-025-026-031-281800-
SOUTHWEST ARIZONA

CITY           SKY/WX    TMP DP  RH WIND       PRES   REMARKS
YUMA           FAIR      67  37  33 W24G31    29.76R
$$

CAZ031-033-041-043-047-048-061-281800-
SOUTHERN CALIFORNIA

CITY           SKY/WX    TMP DP  RH WIND       PRES   REMARKS
DOWNTOWN L.A.  FAIR      63  46  54 S3        29.83S
L.A. AIRPORT   FAIR      63  46  54 CALM      29.85R
SAN DIEGO      CLOUDY    60  47  61 W8        29.90R
BURBANK        FAIR      62  42  47 CALM      29.83R
ONTARIO        PTSUNNY   57  43  59 VRB5      29.84R
RIVERSIDE      CLOUDY    59  43  55 CALM      29.84R
PALM SPRINGS   PTSUNNY   66  40  38 CALM      29.75S
EL CENTRO NAS  FAIR      67  36  31 W32       29.78S
IMPERIAL       FAIR      69  38  32 W26G35    29.75S
BLYTHE         PTSUNNY   70  39  32 W17G26    29.71R
NEEDLES        PTSUNNY   64  46  52 CALM      29.70R
$$

NVZ020-UTZ003-281800-
SOUTHERN NEVADA-UTAH

CITY           SKY/WX    TMP DP  RH WIND       PRES   REMARKS
LAS VEGAS      PTSUNNY   61  42  49 CALM      29.62S
SALT LAKE CITY CLOUDY    50  38  63 NW7       29.72R
$$

NMZ009-TXZ055-281800-
NEW MEXICO-WEST TEXAS

CITY           SKY/WX    TMP DP  RH WIND       PRES   REMARKS
ALBUQUERQUE    MOSUNNY   66  18  15 S21G26    29.79F
EL PASO        FAIR      75  17  11 W14G22    29.80F
$$


........................KEY........................
SKY/WX - SKY CONDITION/WEATHER
TMP    - TEMPERATURE IN FAHRENHEIT
DP     - DEW POINT IN FAHRENHEIT
RH     - RELATIVE HUMIDITY IN PERCENT
WIND   - DIRECTION AND SPEED IN MILES PER HOUR (MPH)
VRB    - VARIABLE WIND DIRECTION
PRES   - MEAN SEA LEVEL PRESSURE IN INCHES OF MERCURY
         F - FALLING PRESSURE   R - RISING PRESSURE
         S - STEADY PRESSURE
VSB    - VISIBILITY IN MILES
HX     - HEAT INDEX IN FAHRENHEIT
WCI    - WIND CHILL INDEX IN FAHRENHEIT
TC     - TEMPERATURE IN CELSIUS WHICH IS ALSO KNOWN AS
         TEMPERATURE IN CENTIGRADE
AFB    - AIR FORCE BASE
         LUKE AFB IS LUKE AIR FORCE BASE
         DAVIS-MONTHAN IS DAVIS-MONTHAN AIR FORCE BASE
NAS    - NAVAL AIR STATION
         EL CENTRO NAS IS EL CENTRO NAVAL AIR STATION
N/A    - NOT AVAILABLE




USA.gov is the U.S. government's official web portal to all federal, state and local government web resources and services.